Location: La Fredeussais
(48.1780°N, 1.3980°W)
Time: 12:20:43
(UTC+00:00)

PRISM - Pass Details

Date: 26 October 2021
Orbit: 561 x 584 km, 98.2° (Epoch: 29 November)

Event Time Altitude Azimuth Distance (km) Brightness Sun altitude
Rises 03:40:21 0° 19° (NNE) 2,802 ? -30.6°
Reaches altitude 10° 03:42:36 10° 26° (NNE) 1,894 ? -30.3°
Enters shadow 03:45:11 32° 53° (NE) 1,001 ? -29.8°
